Weather observations for the past three days for
Clyde A. Thomas Regional Airport
Metric (Imperial)
Date Time (edt) Wind (kph) Vis. (km) Weather Sky Cond. Temperature (ºC) Relative Humidity Wind Chill (°C) Heat Index (°C) Pressure Precipitation (cm)
Air Dwpt 6 hour altimeter (cm) sea level (mb) 1 hr 3 hr 6 hr
Max. Min.
08 00:55 Calm 16.09 Fair CLR 7 1 66% 76.17 0.0
08 00:35 Calm 16.09 Fair CLR 7 1 66% 76.15 0.0
08 00:15 Calm 16.09 Fair CLR 8 1 62% 76.17 0.0
07 23:55 Calm 16.09 Fair CLR 8 0 57% 76.17 0.0
07 23:35 Calm 16.09 Fair CLR 9 -1 50% 76.17 0.0
07 23:15 Calm 16.09 Fair CLR 9 -1 50% 76.17 0.0
07 22:55 Calm 16.09 Fair CLR 10 -1 47% 76.17 0.0
07 22:35 Calm 16.09 Fair CLR 11 -2 41% 76.17 0.0
07 22:15 NW 6 16.09 Fair CLR 11 -2 41% 76.15 0.0
07 21:55 NW 6 16.09 Fair CLR 11 -2 41% 76.12 0.0
07 21:35 NW 7 16.09 A Few Clouds FEW050 12 -3 35% 76.12 0.0
07 21:15 NW 6 16.09 Fair CLR 12 -2 38% 76.1 0.0
07 20:55 N 7 16.09 Fair CLR 12 -2 38% 76.07 0.0
07 20:35 N 9 16.09 Fair CLR 13 -2 36% 76.07 0.0
07 20:15 N 9 16.09 Fair CLR 14 -2 33% 76.05 0.0
07 19:55 N 7 16.09 Fair CLR 15 -3 29% 76.05 0.0
07 19:35 NW 11 16.09 Fair CLR 15 -3 29% 76.02 0.0
07 19:15 Vrbl 7 16.09 Fair CLR 16 -4 25% 76.02 0.0
07 18:55 NW 9 16.09 Fair CLR 16 -4 25% 76.02 0.0
07 18:35 NW 13 16.09 Fair CLR 16 -4 25% 76.02 0.0
07 18:15 Vrbl 7 16.09 Fair CLR 17 -4 24% 76.02 0.0
07 17:55 Vrbl 9 G 24 14.48 Fair CLR 17 -4 24% 76.02 0.0
07 17:35 NW 15 16.09 Fair CLR 17 -4 24% 76 0.0
07 17:15 NW 13 G 24 16.09 Fair CLR 17 -3 25% 76 0.0
07 16:55 Vrbl 9 G 26 16.09 Fair CLR 17 -3 25% 76 0.0
07 16:35 W 13 16.09 Fair CLR 16 -3 27% 76 0.0
07 16:15 W 13 G 24 16.09 NULL NULL 17 -1 30% 76 0.0
07 16:00 NW 17 G 26 0.00 NULL NULL 0 0 0% 76 0.0
07 08:55 N 13 16.09 Fair CLR 10 5 71% 8 76.12 0.0
07 08:35 N 13 16.09 Fair CLR 10 6 76% 8 76.12 0.0
07 08:15 N 7 16.09 Fair CLR 9 7 87% 8 76.12 0.0
07 07:55 NW 7 16.09 Fair CLR 9 7 87% 8 76.12 0.0
07 07:35 NW 7 16.09 Fair CLR 8 7 93% 7 76.1 0.0
07 07:15 NW 7 16.09 Fair CLR 7 7 100% 6 76.07 0.0
07 06:55 NW 9 16.09 Fair CLR 7 7 100% 5 76.07 0.0
07 06:35 NW 11 12.87 Fair CLR 7 7 100% 5 76.07 0.0
07 06:15 Calm 16.09 Partly Cloudy FEW045 SCT050 7 7 100% 76.07 0.0
07 05:55 Calm 16.09 Overcast FEW034 FEW045 OVC050 8 8 100% 76.05 0.0
07 05:35 Calm 16.09 Overcast OVC050 8 7 93% 76.05 0.0
07 05:15 Calm 16.09 Overcast OVC050 8 7 93% 76.05 0.0
07 04:55 Calm 16.09 Overcast OVC050 9 6 82% 76.05 0.0
07 04:35 Calm 16.09 Overcast OVC050 9 7 87% 76.05 0.0
07 04:15 Calm 16.09 Overcast OVC050 9 8 94% 76.02 0.0
07 03:55 Calm 16.09 Overcast OVC050 10 7 82% 76.05 0.0
07 03:35 NW 6 16.09 Overcast BKN050 OVC055 10 6 76% 76.05 0.0
07 03:15 N 6 16.09 Overcast BKN050 OVC055 10 6 76% 76.05 0.0
07 02:55 N 7 16.09 Overcast OVC050 10 6 76% 9 76.05 0.0
07 02:35 Calm 16.09 Overcast OVC049 10 6 76% 76.05 0.0
07 02:15 Calm 16.09 Overcast OVC049 11 5 67% 76.05 0.0
07 01:55 Calm 16.09 Overcast OVC049 11 5 67% 76.05 0.0
07 01:35 Calm 16.09 Overcast OVC047 11 6 72% 76.07 0.0
07 01:15 N 6 16.09 Overcast OVC044 11 5 67% 76.07 0.0
07 00:55 Calm 16.09 Overcast OVC044 12 6 67% 76.07 0.0
07 00:35 N 6 16.09 Overcast OVC046 12 6 67% 76.07 0.0
07 00:15 N 9 16.09 Overcast OVC047 12 6 67% 76.07 0.0
06 23:55 N 11 16.09 Overcast OVC047 12 5 63% 76.1 0.0
06 23:35 N 9 16.09 Overcast OVC048 12 6 67% 76.07 0.0
06 23:15 N 11 16.09 Overcast OVC048 12 6 67% 76.05 0.0
06 22:55 N 9 16.09 Overcast OVC048 12 7 72% 76.05 0.0
06 22:35 N 11 16.09 Overcast OVC049 13 7 67% 76.05 0.0
06 22:15 N 11 16.09 Overcast OVC049 13 8 72% 76.02 0.0
06 21:55 NW 7 16.09 Overcast OVC049 13 8 72% 76.05 0.0
06 21:35 NW 6 16.09 Overcast OVC048 13 8 72% 76.05 0.0
06 21:15 Calm 16.09 Overcast OVC047 13 8 72% 76.02 0.0
06 20:55 Calm 16.09 Overcast OVC046 13 8 72% 76 0.0
06 20:35 Calm 16.09 Overcast OVC044 13 8 72% 75.97 0.0
06 20:15 Calm 16.09 Overcast OVC042 14 7 63% 76 0.0
06 19:55 Calm 16.09 Overcast OVC040 14 8 67% 75.92 0.0
06 19:35 Calm 16.09 Overcast OVC038 14 8 67% 75.95 0.0
06 19:15 Calm 16.09 Overcast OVC037 14 9 72% 75.92 0.0
06 18:55 Calm 16.09 Overcast OVC035 14 9 72% 75.92 0.0
06 18:35 Vrbl 6 16.09 Overcast OVC035 14 9 72% 75.9 0.0
06 18:15 Calm 16.09 Overcast OVC034 15 9 68% 75.92 0.0
06 17:55 Vrbl 7 16.09 Overcast OVC034 15 9 68% 75.97 0.0
06 17:35 W 7 16.09 Overcast BKN034 OVC044 15 9 68% 75.92 0.0
06 17:15 Vrbl 7 16.09 Overcast OVC032 15 9 68% 75.9 0.0
06 16:55 NW 7 16.09 Overcast FEW026 BKN032 OVC044 15 9 68% 75.9 0.0
06 16:35 Vrbl 6 16.09 Overcast BKN028 OVC044 15 9 68% 75.92 0.0
06 16:15 Vrbl 7 16.09 Overcast OVC029 15 9 68% 75.95 0.0
06 15:55 W 9 16.09 Overcast OVC027 15 9 68% 75.92 0.0
06 15:35 Vrbl 9 16.09 Overcast BKN025 OVC045 15 9 68% 75.95 0.0
06 15:15 Calm 16.09 Overcast OVC023 14 9 72% 75.95 0.0
06 14:55 NW 7 16.09 Overcast OVC024 14 9 72% 75.9 0.0
06 14:35 N 13 16.09 Overcast BKN021 OVC025 14 9 72% 75.92 0.0
06 14:15 Vrbl 9 16.09 Overcast BKN018 OVC023 14 10 77% 75.92 0.0
06 13:55 N 11 16.09 Overcast OVC017 14 10 77% 75.9 0.0
06 13:35 Vrbl 9 16.09 Overcast OVC015 13 10 82% 75.92 0.0
06 13:15 Vrbl 9 16.09 Overcast BKN014 OVC019 13 10 82% 75.92 0.0
06 12:55 Vrbl 7 16.09 Overcast OVC013 12 11 94% 75.92 0.0
06 12:40 N 11 16.09 NULL NULL 12 11 94% 75.92 0.0
06 12:35 NW 11 16.09 NULL NULL 12 11 94% 75.92 0.0
06 12:33 N 11 16.09 NULL NULL 12 11 94% 75.92 0.0
05 21:55 Calm 16.09 Mostly Cloudy FEW033 SCT047 BKN075 18 10 60% 75.54 0.0
05 21:35 Calm 14.48 Light Rain FEW034 SCT050 BKN065 19 10 56% 75.59 0.0
05 21:15 Calm 16.09 Overcast FEW065 OVC075 19 9 52% 75.59 0.0
05 20:55 SW 6 16.09 Overcast OVC070 20 9 49% 75.59 0.0
05 20:35 S 7 16.09 Overcast OVC070 20 9 49% 75.59 0.0
05 20:15 S 7 16.09 Overcast BKN070 OVC080 20 9 49% 75.57 0.0
05 19:55 Vrbl 9 16.09 Overcast BKN070 OVC080 19 10 56% 75.57 0.0
05 19:35 Calm 16.09 Overcast OVC070 19 10 56% 75.59 0.0
05 19:15 S 6 16.09 Overcast FEW060 OVC075 20 10 53% 75.62 0.0
05 18:55 Calm 16.09 Overcast BKN060 OVC080 19 10 56% 75.64 0.0
05 18:35 Calm 16.09 Overcast BKN060 OVC090 20 11 56% 75.67 0.0
05 18:15 SW 9 16.09 Mostly Cloudy FEW070 BKN085 20 9 49% 75.69 0.0
05 17:55 S 13 16.09 Mostly Cloudy BKN080 BKN090 20 9 49% 75.67 0.0
05 17:35 S 20 G 30 16.09 Light Rain FEW095 20 9 49% 75.67 0.0
05 17:15 S 19 G 31 16.09 Fair CLR 21 8 43% 75.69 0.0
05 16:55 S 20 G 30 16.09 A Few Clouds FEW060 21 9 46% 75.69 0.0
05 16:35 S 24 16.09 Partly Cloudy FEW055 SCT065 22 9 44% 75.69 0.0
05 16:15 S 13 G 31 16.09 Mostly Cloudy SCT060 BKN065 22 9 44% 75.72 0.0
05 15:55 S 28 G 44 14.48 Fair CLR 22 9 44% 75.74 0.0
05 15:35 SW 24 G 35 16.09 Fair CLR 22 9 44% 75.74 0.0
05 15:15 S 20 G 31 16.09 A Few Clouds FEW070 22 9 44% 75.77 0.0
05 14:55 SW 24 G 37 16.09 A Few Clouds FEW070 21 9 46% 75.79 0.0
05 14:35 S 22 G 41 14.48 A Few Clouds FEW055 FEW065 FEW075 22 9 44% 75.82 0.0
05 14:15 S 19 G 35 16.09 Mostly Cloudy SCT055 SCT065 BKN075 21 10 50% 75.82 0.0
05 13:55 SW 20 G 33 16.09 Mostly Cloudy SCT050 SCT060 BKN075 21 10 50% 75.87 0.0
05 13:35 SW 19 G 28 16.09 A Few Clouds FEW050 FEW060 FEW070 22 10 47% 75.9 0.0
05 13:15 S 24 G 33 2.82 Haze NULL 22 10 47% 75.9 0.0
Date Time (edt) Wind (kph) Vis. (km) Weather Sky Cond. Air Dwpt Max. Min. Relative Humidity Wind Chill (°C) Heat Index (°C) altimeter (cm) sea level (mb) 1 hr 3 hr 6 hr
6 hour
Temperature (ºC) Pressure Precipitation (cm)